Location: Byszew
(52.1813°N, 19.2693°E)
Time: 19:27:32
(UTC+00:00)

Meteor 2-4 Rocket - Pass Details

Date: 03 March 2021
Orbit: 799 x 908 km, 81.2° (Epoch: 15 April)

Event Time Altitude Azimuth Distance (km) Brightness Sun altitude
Rises 17:01:37 0° 349° (N) 3,477 7.0 -6.2°
Reaches altitude 10° 17:04:10 10° 356° (N) 2,550 6.2 -6.6°
Maximum altitude 17:09:44 44° 69° (ENE) 1,218 4.2 -7.5°
Drops below altitude 10° 17:15:21 10° 141° (SE) 2,582 5.9 -8.3°
Sets 17:17:57 0° 147° (SSE) 3,524 6.6 -8.7°
